| time (UTC) | temp F | wind direction | speed MPH | gust MPH | rain 1hr in | rain 24hr in | rain mn in | humidity % | barometer mb |
| 20260509095720 | 73 | 209 | 0.0 | 0.0 | 0.00 | 0.00 | 0.00 | 1 | 972.6 |
| 20260509094702 | 73 | 209 | 0.0 | 0.0 | 0.00 | 0.00 | 0.00 | 1 | 972.1 |
| 20260509093716 | 73 | 209 | 0.0 | 0.0 | 0.00 | 0.00 | 0.00 | 1 | 971.7 |
| 20260509092722 | 73 | 209 | 0.0 | 0.0 | 0.00 | 0.00 | 0.00 | 1 | 971.6 |
| 20260509091711 | 73 | 209 | 0.0 | 0.0 | 0.00 | 0.00 | 0.00 | 1 | 971.6 |
| 20260509090642 | 73 | 209 | 0.0 | 0.0 | 0.00 | 0.00 | 0.00 | 1 | 971.5 |
| 20260509085631 | 73 | 209 | 0.0 | 0.0 | 0.00 | 0.00 | 0.00 | 1 | 971.6 |
| 20260509084632 | 73 | 209 | 0.0 | 0.0 | 0.00 | 0.00 | 0.00 | 1 | 971.7 |
| 20260509083629 | 73 | 209 | 0.0 | 0.0 | 0.00 | 0.00 | 0.00 | 1 | 971.8 |
| 20260509082646 | 73 | 209 | 0.0 | 0.0 | 0.00 | 0.00 | 0.00 | 1 | 972.0 |
| 20260509080506 | 73 | 209 | 0.0 | 0.0 | 0.00 | 0.00 | 0.00 | 1 | 972.1 |
| 20260509075443 | 73 | 209 | 0.0 | 0.0 | 0.00 | 0.00 | 0.00 | 1 | 972.1 |
| 20260509074433 | 73 | 209 | 0.0 | 0.0 | 0.00 | 0.00 | 0.00 | 1 | 972.1 |
| 20260509073451 | 73 | 209 | 0.0 | 0.0 | 0.00 | 0.00 | 0.00 | 1 | 972.0 |
| 20260509072428 | 73 | 209 | 0.0 | 0.0 | 0.00 | 0.00 | 0.00 | 1 | 972.3 |
| 20260509071442 | 73 | 209 | 0.0 | 0.0 | 0.00 | 0.00 | 0.00 | 1 | 972.3 |
| 20260509070411 | 73 | 209 | 0.0 | 0.0 | 0.00 | 0.00 | 0.00 | 1 | 972.7 |
| 20260509065347 | 73 | 209 | 0.0 | 0.0 | 0.00 | 0.00 | 0.00 | 1 | 972.5 |
| 20260509064313 | 73 | 209 | 0.0 | 0.0 | 0.00 | 0.00 | 0.00 | 1 | 972.2 |
| 20260509063335 | 73 | 209 | 0.0 | 0.0 | 0.00 | 0.00 | 0.00 | 1 | 972.2 |
| 20260509062309 | 73 | 209 | 0.0 | 0.0 | 0.00 | 0.00 | 0.00 | 1 | 972.4 |
| 20260509061328 | 73 | 209 | 0.0 | 0.0 | 0.00 | 0.00 | 0.00 | 1 | 972.2 |
| 20260509060321 | 73 | 209 | 0.0 | 0.0 | 0.00 | 0.00 | 0.00 | 1 | 971.7 |
| 20260509055249 | 73 | 209 | 0.0 | 0.0 | 0.00 | 0.00 | 0.00 | 1 | 971.8 |
| 20260509054249 | 73 | 209 | 0.0 | 0.0 | 0.00 | 0.00 | 0.00 | 1 | 972.0 |
| 20260509053307 | 72 | 208 | 0.0 | 0.0 | 0.00 | 0.00 | 0.00 | 1 | 971.5 |
| 20260509052331 | 72 | 208 | 0.0 | 0.0 | 0.00 | 0.00 | 0.00 | 1 | 971.1 |
| 20260509051309 | 72 | 208 | 0.0 | 0.0 | 0.00 | 0.00 | 0.00 | 1 | 970.9 |
| 20260509050241 | 72 | 208 | 0.0 | 0.0 | 0.00 | 0.00 | 0.00 | 1 | 970.9 |
| 20260509042922 | 72 | 208 | 0.0 | 0.0 | 0.00 | 0.00 | 0.00 | 1 | 971.3 |
| 20260509041914 | 72 | 208 | 0.0 | 0.0 | 0.00 | 0.00 | 0.00 | 1 | 971.5 |
| 20260509035711 | 72 | 208 | 0.0 | 0.0 | 0.00 | 0.00 | 0.00 | 1 | 971.6 |
| 20260509034722 | 73 | 208 | 0.0 | 0.0 | 0.00 | 0.00 | 0.00 | 1 | 971.5 |
| 20260509033718 | 73 | 208 | 0.0 | 0.0 | 0.00 | 0.00 | 0.00 | 1 | 971.4 |
| 20260509032707 | 73 | 208 | 0.0 | 0.0 | 0.00 | 0.00 | 0.00 | 1 | 971.2 |
| 20260509030546 | 73 | 208 | 0.0 | 0.0 | 0.00 | 0.00 | 0.00 | 1 | 971.1 |
| 20260509025525 | 73 | 208 | 0.0 | 0.0 | 0.00 | 0.00 | 0.00 | 1 | 971.1 |
| 20260509024537 | 74 | 208 | 0.0 | 0.0 | 0.00 | 0.00 | 0.00 | 1 | 971.1 |
| 20260509023543 | 74 | 208 | 0.0 | 0.0 | 0.00 | 0.00 | 0.00 | 1 | 970.9 |
| 20260509021423 | 74 | 208 | 0.0 | 0.0 | 0.00 | 0.00 | 0.00 | 1 | 970.6 |
| 20260509020446 | 75 | 208 | 0.0 | 0.0 | 0.00 | 0.00 | 0.00 | 1 | 970.4 |
| 20260509015501 | 75 | 208 | 0.0 | 0.0 | 0.00 | 0.00 | 0.00 | 1 | 970.2 |
| 20260509014503 | 75 | 208 | 0.0 | 0.0 | 0.00 | 0.00 | 0.00 | 1 | 970.3 |
| 20260509013450 | 75 | 208 | 0.0 | 0.0 | 0.00 | 0.00 | 0.00 | 3 | 970.1 |
| 20260509012449 | 75 | 208 | 0.0 | 0.0 | 0.00 | 0.00 | 0.00 | 10 | 970.0 |
| 20260509011437 | 75 | 208 | 0.0 | 0.0 | 0.00 | 0.00 | 0.00 | 14 | 969.9 |
| 20260509010439 | 76 | 208 | 0.0 | 0.0 | 0.00 | 0.00 | 0.00 | 17 | 970.0 |
| 20260509005441 | 76 | 208 | 0.0 | 0.0 | 0.00 | 0.00 | 0.00 | 22 | 970.1 |
| 20260509004447 | 76 | 208 | 0.0 | 0.0 | 0.00 | 0.00 | 0.00 | 24 | 970.1 |
| 20260509002320 | 76 | 208 | 0.0 | 0.0 | 0.00 | 0.00 | 0.00 | 31 | 970.1 |
| 20260509000147 | 76 | 208 | 0.0 | 0.0 | 0.00 | 0.00 | 0.00 | 39 | 970.2 |
| 20260508235139 | 76 | 208 | 0.0 | 0.0 | 0.00 | 0.00 | 0.00 | 42 | 970.2 |
| 20260508234150 | 76 | 208 | 0.0 | 0.0 | 0.00 | 0.00 | 0.00 | 46 | 970.2 |
| 20260508233210 | 77 | 208 | 0.0 | 0.0 | 0.00 | 0.00 | 0.00 | 48 | 970.2 |
| 20260508232232 | 77 | 208 | 0.0 | 0.0 | 0.00 | 0.00 | 0.00 | 50 | 970.2 |
| 20260508231209 | 77 | 208 | 0.0 | 0.0 | 0.00 | 0.00 | 0.00 | 52 | 970.2 |
| 20260508230205 | 77 | 208 | 0.0 | 0.0 | 0.00 | 0.00 | 0.00 | 54 | 970.1 |
| 20260508225137 | 78 | 208 | 0.0 | 0.0 | 0.00 | 0.00 | 0.00 | 56 | 970.1 |
| 20260508224136 | 78 | 208 | 0.0 | 0.0 | 0.00 | 0.00 | 0.00 | 57 | 970.2 |
| 20260508223130 | 78 | 208 | 0.0 | 0.0 | 0.00 | 0.00 | 0.00 | 58 | 970.0 |
| 20260508222144 | 79 | 208 | 0.0 | 0.0 | 0.00 | 0.00 | 0.00 | 59 | 970.2 |
| 20260508221147 | 79 | 205 | 0.0 | 0.0 | 0.00 | 0.00 | 0.00 | 60 | 970.1 |
| 20260508220135 | 79 | 205 | 0.0 | 0.0 | 0.00 | 0.00 | 0.00 | 59 | 970.0 |
| 20260508215117 | 79 | 206 | 0.0 | 0.0 | 0.00 | 0.00 | 0.00 | 59 | 970.1 |
| 20260508214121 | 79 | 206 | 0.0 | 0.0 | 0.00 | 0.00 | 0.00 | 60 | 970.3 |
| 20260508213120 | 80 | 194 | 0.0 | 0.0 | 0.00 | 0.00 | 0.00 | 59 | 970.4 |
| 20260508212111 | 79 | 193 | 0.0 | 0.0 | 0.00 | 0.00 | 0.00 | 59 | 970.5 |
| 20260508211136 | 79 | 209 | 0.0 | 0.0 | 0.00 | 0.00 | 0.00 | 60 | 970.7 |
| 20260508210106 | 79 | 210 | 0.0 | 0.0 | 0.00 | 0.00 | 0.00 | 60 | 970.9 |
| 20260508205052 | 79 | 215 | 0.0 | 0.0 | 0.00 | 0.00 | 0.00 | 60 | 971.0 |
| 20260508204105 | 78 | 140 | 0.0 | 0.0 | 0.00 | 0.00 | 0.00 | 60 | 971.2 |
| 20260508203112 | 79 | 142 | 0.0 | 0.0 | 0.00 | 0.00 | 0.00 | 60 | 971.3 |
| 20260508195712 | 78 | 115 | 0.0 | 0.0 | 0.00 | 0.00 | 0.00 | 60 | 971.7 |
| 20260508194652 | 78 | 114 | 0.0 | 0.0 | 0.00 | 0.00 | 0.00 | 60 | 971.7 |
| 20260508192518 | 79 | 113 | 0.0 | 0.0 | 0.00 | 0.00 | 0.00 | 60 | 972.0 |
| 20260508191501 | 79 | 113 | 0.0 | 0.0 | 0.00 | 0.00 | 0.00 | 60 | 972.1 |
| 20260508190452 | 80 | 113 | 0.0 | 1.0 | 0.00 | 0.00 | 0.00 | 60 | 972.2 |
| 20260508185440 | 79 | 109 | 0.0 | 0.0 | 0.00 | 0.00 | 0.00 | 60 | 972.2 |
| 20260508182156 | 78 | 109 | 0.0 | 0.0 | 0.00 | 0.00 | 0.00 | 59 | 972.6 |
| 20260508180041 | 75 | 109 | 0.0 | 0.0 | 0.00 | 0.00 | 0.00 | 56 | 972.9 |
| 20260508175025 | 74 | 109 | 0.0 | 0.0 | 0.00 | 0.00 | 0.00 | 58 | 972.9 |
| 20260508173957 | 74 | 109 | 0.0 | 0.0 | 0.00 | 0.00 | 0.00 | 59 | 973.2 |
| 20260508172923 | 74 | 109 | 0.0 | 0.0 | 0.00 | 0.00 | 0.00 | 56 | 973.3 |
| 20260508171905 | 73 | 109 | 0.0 | 0.0 | 0.00 | 0.00 | 0.00 | 54 | 973.5 |
| 20260508170901 | 71 | 108 | 0.0 | 0.0 | 0.00 | 0.00 | 0.00 | 46 | 973.5 |
| 20260508165852 | 70 | 109 | 0.0 | 0.0 | 0.00 | 0.00 | 0.00 | 49 | 973.6 |
| 20260508164855 | 69 | 108 | 0.0 | 0.0 | 0.00 | 0.00 | 0.00 | 50 | 973.8 |
| 20260508162753 | 68 | 109 | 0.0 | 0.0 | 0.00 | 0.00 | 0.00 | 42 | 974.2 |
| 20260508161801 | 68 | 109 | 0.0 | 0.0 | 0.00 | 0.00 | 0.00 | 44 | 974.2 |
| 20260508160740 | 68 | 109 | 0.0 | 0.0 | 0.00 | 0.00 | 0.00 | 41 | 974.2 |
| 20260508155729 | 67 | 109 | 0.0 | 0.0 | 0.00 | 0.00 | 0.00 | 40 | 974.3 |
| 20260508153626 | 66 | 109 | 0.0 | 0.0 | 0.00 | 0.00 | 0.00 | 40 | 974.7 |
| 20260508152556 | 66 | 109 | 0.0 | 0.0 | 0.00 | 0.00 | 0.00 | 45 | 974.7 |
| 20260508145322 | 66 | 109 | 0.0 | 0.0 | 0.00 | 0.00 | 0.00 | 42 | 974.7 |
| 20260508144319 | 66 | 109 | 0.0 | 0.0 | 0.00 | 0.00 | 0.00 | 37 | 974.7 |
| 20260508143248 | 65 | 109 | 0.0 | 0.0 | 0.00 | 0.00 | 0.00 | 35 | 974.7 |
| 20260508142307 | 65 | 109 | 0.0 | 0.0 | 0.00 | 0.00 | 0.00 | 28 | 974.5 |
| 20260508141242 | 64 | 108 | 0.0 | 0.0 | 0.00 | 0.00 | 0.00 | 26 | 974.4 |
| 20260508140306 | 64 | 108 | 0.0 | 0.0 | 0.00 | 0.00 | 0.00 | 27 | 974.5 |
| 20260508135314 | 63 | 108 | 0.0 | 0.0 | 0.00 | 0.00 | 0.00 | 18 | 974.6 |
| 20260508134333 | 63 | 108 | 0.0 | 0.0 | 0.00 | 0.00 | 0.00 | 9 | 974.8 |
| 20260508133305 | 62 | 108 | 0.0 | 0.0 | 0.00 | 0.00 | 0.00 | 9 | 974.8 |
| 20260508132301 | 62 | 108 | 0.0 | 0.0 | 0.00 | 0.00 | 0.00 | 1 | 974.3 |
| 20260508130122 | 61 | 108 | 0.0 | 0.0 | 0.00 | 0.00 | 0.00 | 5 | 975.1 |
| 20260508125136 | 61 | 108 | 0.0 | 0.0 | 0.00 | 0.00 | 0.00 | 4 | 974.9 |
| 20260508124148 | 61 | 108 | 0.0 | 0.0 | 0.00 | 0.00 | 0.00 | 3 | 975.1 |
| 20260508123130 | 61 | 108 | 0.0 | 0.0 | 0.00 | 0.00 | 0.00 | 5 | 975.0 |
| 20260508122141 | 61 | 108 | 0.0 | 0.0 | 0.00 | 0.00 | 0.00 | 4 | 975.1 |
| 20260508120048 | 60 | 108 | 0.0 | 0.0 | 0.00 | 0.00 | 0.00 | 6 | 975.2 |
| 20260508115057 | 60 | 108 | 0.0 | 0.0 | 0.00 | 0.00 | 0.00 | 6 | 975.3 |
| 20260508112923 | 61 | 108 | 0.0 | 0.0 | 0.00 | 0.00 | 0.00 | 1 | 975.6 |
| 20260508111903 | 60 | 108 | 0.0 | 0.0 | 0.00 | 0.00 | 0.00 | 4 | 975.7 |
| 20260508105818 | 60 | 108 | 0.0 | 0.0 | 0.00 | 0.00 | 0.00 | 7 | 975.3 |
| 20260508104834 | 60 | 108 | 0.0 | 0.0 | 0.00 | 0.00 | 0.00 | 7 | 975.1 |
| 20260508102651 | 61 | 108 | 0.0 | 0.0 | 0.00 | 0.00 | 0.00 | 2 | 975.0 |
| 20260508101651 | 60 | 108 | 0.0 | 0.0 | 0.00 | 0.00 | 0.00 | 4 | 975.4 |